This is the latest recevied weather packets stored in our database for station/object GW4003. If no packets are shown the sender has not sent any weather packets the latest 1 day(s).
| Time | Temp. | Humidity | Pressure | Rain* | Wind** | Luminosity | Snow |
|---|---|---|---|---|---|---|---|
| 1777962775 | 9.44° C | 85% | 1012.5 hPa | 0 mm | 0.45 m/s, 197° | - | - |
| 1777962472 | 9.44° C | 85% | 1012.6 hPa | 0 mm | 0 m/s | - | - |
| 1777962168 | 9.44° C | 85% | 1012.6 hPa | 0 mm | 0 m/s | - | - |
| 1777961865 | 9.44° C | 85% | 1012.6 hPa | 0 mm | 0.45 m/s, 175° | - | - |
| 1777961562 | 9.44° C | 85% | 1012.8 hPa | 0 mm | 0 m/s | - | - |
| 1777961259 | 9.44° C | 85% | 1012.9 hPa | 0 mm | 0 m/s | - | - |
| 1777960955 | 9.44° C | 85% | 1012.7 hPa | 0.25 mm | 0 m/s | - | - |
| 1777960652 | 9.44° C | 85% | 1012.8 hPa | 0.25 mm | 0 m/s | - | - |
| 1777960349 | 9.44° C | 85% | 1012.8 hPa | 0.25 mm | 0.89 m/s, 229° | - | - |
| 1777960046 | 9.44° C | 85% | 1012.9 hPa | 0.25 mm | 0.45 m/s, 252° | - | - |
| 1777959743 | 9.44° C | 84% | 1012.8 hPa | 0.25 mm | 0.89 m/s, 230° | - | - |
| 1777959450 | 9.44° C | 84% | 1012.6 hPa | 0.25 mm | 0.45 m/s, 238° | - | - |
| 1777959136 | 9.44° C | 84% | 1012.5 hPa | 0.25 mm | 0.89 m/s, 225° | - | - |
| 1777958833 | 9.44° C | 84% | 1012.4 hPa | 0.51 mm | 0.45 m/s, 209° | - | - |
| 1777958530 | 9.44° C | 84% | 1012.4 hPa | 0.51 mm | 0.89 m/s, 213° | - | - |
| 1777958227 | 9.44° C | 84% | 1012.5 hPa | 0.76 mm | 0.45 m/s, 228° | - | - |
| 1777957923 | 9.44° C | 84% | 1012.8 hPa | 0.76 mm | 0 m/s | - | - |
| 1777957620 | 9.44° C | 83% | 1013 hPa | 0.76 mm | 1.34 m/s, 249° | - | - |
| 1777957317 | 10° C | 83% | 1012.8 hPa | 1.02 mm | 0.45 m/s, 256° | - | - |
| 1777957014 | 10° C | 83% | 1012.8 hPa | 1.02 mm | 0 m/s | - | - |
| 1777956711 | 10° C | 83% | 1012.9 hPa | 1.27 mm | 0.45 m/s, 261° | - | - |
| 1777956407 | 10° C | 83% | 1012.9 hPa | 1.27 mm | 0.45 m/s, 267° | - | - |
| 1777956104 | 10° C | 83% | 1013 hPa | 1.27 mm | 1.34 m/s, 266° | - | - |
| 1777955801 | 10° C | 83% | 1013 hPa | 1.27 mm | 0 m/s | - | - |
| 1777955498 | 10° C | 82% | 1013.1 hPa | 1.27 mm | 0 m/s | - | - |
* Rain latest hour (hover to see other rain measurements)
** Current wind speed in m/s (hover to see current wind gust speed)